Time,TemperatureF,DewpointF,PressureIn,WindDirection,WindDirectionDegrees,WindSpeedMPH,WindSpeedGustMPH,Humidity,HourlyPrecipIn,Conditions,Clouds,dailyrainin,SoftwareType,DateUTC
2013-01-23 00:12:00,9.2,-6.0,30.23,WNW,284,10.0,-999.0,50,-99.99,,,0.00,weatherlink.com 1.10,2013-01-23 05:12:00,
2013-01-23 00:27:00,9.1,-6.0,30.23,West,274,6.0,-999.0,51,-99.99,,,0.00,weatherlink.com 1.10,2013-01-23 05:27:00,
2013-01-23 00:42:00,8.9,-6.0,30.22,WNW,282,7.0,-999.0,52,-99.99,,,0.00,weatherlink.com 1.10,2013-01-23 05:42:00,
2013-01-23 00:58:00,8.7,-5.0,30.23,West,259,5.0,-999.0,54,-99.99,,,0.00,weatherlink.com 1.10,2013-01-23 05:58:00,
2013-01-23 01:13:00,8.6,-5.0,30.23,West,277,6.0,-999.0,55,-99.99,,,0.00,weatherlink.com 1.10,2013-01-23 06:13:00,
2013-01-23 01:28:00,8.5,-5.0,30.24,WNW,298,3.0,-999.0,55,-99.99,,,0.00,weatherlink.com 1.10,2013-01-23 06:28:00,
2013-01-23 01:45:00,8.4,-4.0,30.24,NW,321,3.0,-999.0,56,-99.99,,,0.00,weatherlink.com 1.10,2013-01-23 06:45:00,
2013-01-23 02:00:00,8.5,-4.0,30.25,WNW,291,4.0,-999.0,57,-99.99,,,0.00,weatherlink.com 1.10,2013-01-23 07:00:00,
2013-01-23 02:15:00,8.5,-4.0,30.25,West,279,4.0,-999.0,57,-99.99,,,0.00,weatherlink.com 1.10,2013-01-23 07:15:00,
2013-01-23 02:30:00,8.4,-4.0,30.25,WNW,282,8.0,-999.0,58,-99.99,,,0.00,weatherlink.com 1.10,2013-01-23 07:30:00,
2013-01-23 02:48:00,8.2,-4.0,30.25,West,277,3.0,-999.0,59,-99.99,,,0.00,weatherlink.com 1.10,2013-01-23 07:48:00,
2013-01-23 03:00:00,8.3,-3.0,30.25,WNW,292,5.0,-999.0,59,-99.99,,,0.00,weatherlink.com 1.10,2013-01-23 08:00:00,
2013-01-23 03:16:00,8.1,-3.0,30.24,WNW,301,2.0,-999.0,60,-99.99,,,0.00,weatherlink.com 1.10,2013-01-23 08:16:00,
2013-01-23 03:32:00,8.1,-3.0,30.24,WSW,237,6.0,-999.0,60,-99.99,,,0.00,weatherlink.com 1.10,2013-01-23 08:32:00,
2013-01-23 03:46:00,8.0,-3.0,30.24,WSW,254,3.0,-999.0,61,-99.99,,,0.00,weatherlink.com 1.10,2013-01-23 08:46:00,
2013-01-23 04:01:00,7.8,-3.0,30.24,West,279,2.0,-999.0,62,-99.99,,,0.00,weatherlink.com 1.10,2013-01-23 09:01:00,
2013-01-23 04:18:00,7.8,-3.0,30.24,WSW,256,5.0,-999.0,62,-99.99,,,0.00,weatherlink.com 1.10,2013-01-23 09:18:00,
2013-01-23 04:32:00,7.8,-3.0,30.25,West,277,2.0,-999.0,63,-99.99,,,0.00,weatherlink.com 1.10,2013-01-23 09:32:00,
2013-01-23 04:47:00,7.7,-3.0,30.25,WSW,253,5.0,-999.0,63,-99.99,,,0.00,weatherlink.com 1.10,2013-01-23 09:47:00,
2013-01-23 05:03:00,7.6,-2.0,30.25,WNW,298,6.0,-999.0,64,-99.99,,,0.00,weatherlink.com 1.10,2013-01-23 10:03:00,
2013-01-23 05:18:00,7.6,-2.0,30.25,WNW,288,3.0,-999.0,64,-99.99,,,0.00,weatherlink.com 1.10,2013-01-23 10:18:00,
2013-01-23 05:33:00,7.5,-2.0,30.25,West,281,7.0,-999.0,65,-99.99,,,0.00,weatherlink.com 1.10,2013-01-23 10:33:00,
2013-01-23 05:50:00,7.4,-2.0,30.25,WNW,302,6.0,-999.0,66,-99.99,,,0.00,weatherlink.com 1.10,2013-01-23 10:50:00,
2013-01-23 06:05:00,7.4,-2.0,30.25,WNW,294,5.0,-999.0,66,-99.99,,,0.00,weatherlink.com 1.10,2013-01-23 11:05:00,
2013-01-23 06:20:00,7.3,-2.0,30.25,West,259,4.0,-999.0,67,-99.99,,,0.00,weatherlink.com 1.10,2013-01-23 11:20:00,
2013-01-23 06:35:00,7.4,-2.0,30.26,WNW,286,6.0,-999.0,67,-99.99,,,0.00,weatherlink.com 1.10,2013-01-23 11:35:00,
2013-01-23 06:50:00,7.3,-2.0,30.26,WNW,284,6.0,-999.0,67,-99.99,,,0.00,weatherlink.com 1.10,2013-01-23 11:50:00,
2013-01-23 07:05:00,7.3,-1.0,30.26,WNW,288,5.0,-999.0,68,-99.99,,,0.00,weatherlink.com 1.10,2013-01-23 12:05:00,
2013-01-23 07:52:00,7.4,-1.0,30.26,West,281,5.0,-999.0,68,-99.99,,,0.00,weatherlink.com 1.10,2013-01-23 12:52:00,
2013-01-23 08:08:00,7.7,-1.0,30.26,West,266,4.0,-999.0,68,-99.99,,,0.00,weatherlink.com 1.10,2013-01-23 13:08:00,
2013-01-23 08:22:00,8.0,-1.0,30.26,WNW,292,5.0,-999.0,67,-99.99,,,0.00,weatherlink.com 1.10,2013-01-23 13:22:00,
2013-01-23 08:38:00,8.3,-1.0,30.27,WNW,283,8.0,-999.0,67,-99.99,,,0.00,weatherlink.com 1.10,2013-01-23 13:38:00,
2013-01-23 08:53:00,8.8,-1.0,30.27,WNW,286,11.0,-999.0,66,-99.99,,,0.00,weatherlink.com 1.10,2013-01-23 13:53:00,
2013-01-23 09:08:00,9.3,0.0,30.28,WNW,296,5.0,-999.0,66,-99.99,,,0.00,weatherlink.com 1.10,2013-01-23 14:08:00,
2013-01-23 09:23:00,9.8,0.0,30.28,West,266,6.0,-999.0,65,-99.99,,,0.00,weatherlink.com 1.10,2013-01-23 14:23:00,
2013-01-23 09:38:00,10.4,0.0,30.28,WNW,294,8.0,-999.0,64,-99.99,,,0.00,weatherlink.com 1.10,2013-01-23 14:38:00,
2013-01-23 09:53:00,10.6,0.0,30.29,WNW,285,11.0,-999.0,63,-99.99,,,0.00,weatherlink.com 1.10,2013-01-23 14:53:00,
2013-01-23 10:10:00,11.4,0.0,30.29,NW,304,5.0,-999.0,60,-99.99,,,0.00,weatherlink.com 1.10,2013-01-23 15:10:00,
2013-01-23 10:25:00,11.8,0.0,30.29,West,273,4.0,-999.0,59,-99.99,,,0.00,weatherlink.com 1.10,2013-01-23 15:25:00,
2013-01-23 10:40:00,12.2,-1.0,30.28,NNW,331,5.0,-999.0,57,-99.99,,,0.00,weatherlink.com 1.10,2013-01-23 15:40:00,
2013-01-23 10:55:00,12.6,-1.0,30.28,West,262,5.0,-999.0,55,-99.99,,,0.00,weatherlink.com 1.10,2013-01-23 15:55:00,
2013-01-23 11:10:00,13.3,0.0,30.27,West,279,9.0,-999.0,55,-99.99,,,0.00,weatherlink.com 1.10,2013-01-23 16:10:00,
2013-01-23 11:25:00,13.6,-1.0,30.26,WSW,242,6.0,-999.0,53,-99.99,,,0.00,weatherlink.com 1.10,2013-01-23 16:25:00,
2013-01-23 11:41:00,12.8,0.0,30.25,West,259,3.0,-999.0,56,-99.99,,,0.00,weatherlink.com 1.10,2013-01-23 16:41:00,
2013-01-23 11:56:00,13.2,-1.0,30.24,West,271,10.0,-999.0,54,-99.99,,,0.00,weatherlink.com 1.10,2013-01-23 16:56:00,
2013-01-23 12:11:00,13.2,-1.0,30.23,WNW,284,7.0,-999.0,54,-99.99,,,0.00,weatherlink.com 1.10,2013-01-23 17:11:00,
2013-01-23 12:26:00,13.8,-1.0,30.23,WNW,293,6.0,-999.0,52,-99.99,,,0.00,weatherlink.com 1.10,2013-01-23 17:26:00,
2013-01-23 12:42:00,13.9,1.0,30.22,WNW,284,2.0,-999.0,56,-99.99,,,0.00,weatherlink.com 1.10,2013-01-23 17:42:00,
2013-01-23 12:57:00,13.7,1.0,30.22,West,273,6.0,-999.0,58,-99.99,,,0.00,weatherlink.com 1.10,2013-01-23 17:57:00,
2013-01-23 13:13:00,15.7,1.0,30.21,WSW,247,5.0,-999.0,52,-99.99,,,0.00,weatherlink.com 1.10,2013-01-23 18:13:00,
2013-01-23 13:31:00,14.0,0.0,30.21,WNW,303,10.0,-999.0,55,-99.99,,,0.00,weatherlink.com 1.10,2013-01-23 18:31:00,
2013-01-23 13:43:00,14.8,2.0,30.21,NNW,336,9.0,-999.0,56,-99.99,,,0.00,weatherlink.com 1.10,2013-01-23 18:43:00,
2013-01-23 13:58:00,15.1,-1.0,30.21,WNW,293,12.0,-999.0,50,-99.99,,,0.00,weatherlink.com 1.10,2013-01-23 18:58:00,
2013-01-23 14:15:00,13.9,-1.0,30.20,WNW,291,8.0,-999.0,53,-99.99,,,0.00,weatherlink.com 1.10,2013-01-23 19:15:00,
2013-01-23 14:30:00,13.9,-1.0,30.21,WNW,294,6.0,-999.0,52,-99.99,,,0.00,weatherlink.com 1.10,2013-01-23 19:30:00,
2013-01-23 14:45:00,13.9,-1.0,30.21,NW,305,13.0,-999.0,52,-99.99,,,0.00,weatherlink.com 1.10,2013-01-23 19:45:00,
2013-01-23 15:00:00,14.1,0.0,30.22,WSW,247,4.0,-999.0,54,-99.99,,,0.00,weatherlink.com 1.10,2013-01-23 20:00:00,
2013-01-23 15:15:00,13.7,1.0,30.22,WNW,283,9.0,-999.0,57,-99.99,,,0.00,weatherlink.com 1.10,2013-01-23 20:15:00,
2013-01-23 15:30:00,13.5,1.0,30.21,WNW,292,5.0,-999.0,57,-99.99,,,0.00,weatherlink.com 1.10,2013-01-23 20:30:00,
2013-01-23 15:45:00,13.0,2.0,30.21,WNW,292,4.0,-999.0,62,-99.99,,,0.00,weatherlink.com 1.10,2013-01-23 20:45:00,
2013-01-23 16:01:00,13.4,1.0,30.21,NNW,337,7.0,-999.0,59,-99.99,,,0.00,weatherlink.com 1.10,2013-01-23 21:01:00,
2013-01-23 16:16:00,13.7,1.0,30.21,West,260,4.0,-999.0,57,-99.99,,,0.00,weatherlink.com 1.10,2013-01-23 21:16:00,
2013-01-23 16:31:00,13.4,2.0,30.21,WNW,290,3.0,-999.0,60,-99.99,,,0.00,weatherlink.com 1.10,2013-01-23 21:31:00,
2013-01-23 16:47:00,13.2,2.0,30.22,WNW,293,4.0,-999.0,62,-99.99,,,0.00,weatherlink.com 1.10,2013-01-23 21:47:00,
2013-01-23 17:03:00,13.0,3.0,30.22,NW,315,3.0,-999.0,63,-99.99,,,0.00,weatherlink.com 1.10,2013-01-23 22:03:00,
2013-01-23 17:17:00,12.5,2.0,30.22,NW,315,1.0,-999.0,64,-99.99,,,0.00,weatherlink.com 1.10,2013-01-23 22:17:00,
2013-01-23 17:33:00,12.0,2.0,30.22,NW,315,3.0,-999.0,64,-99.99,,,0.00,weatherlink.com 1.10,2013-01-23 22:33:00,
2013-01-23 17:48:00,12.8,1.0,30.22,WNW,289,2.0,-999.0,60,-99.99,,,0.00,weatherlink.com 1.10,2013-01-23 22:48:00,
2013-01-23 18:03:00,12.8,1.0,30.23,West,275,3.0,-999.0,60,-99.99,,,0.00,weatherlink.com 1.10,2013-01-23 23:03:00,
2013-01-23 18:18:00,12.6,1.0,30.23,WNW,286,3.0,-999.0,61,-99.99,,,0.00,weatherlink.com 1.10,2013-01-23 23:18:00,
2013-01-23 18:35:00,12.5,2.0,30.22,NW,309,3.0,-999.0,62,-99.99,,,0.00,weatherlink.com 1.10,2013-01-23 23:35:00,
2013-01-23 18:53:00,12.3,2.0,30.23,WNW,295,3.0,-999.0,63,-99.99,,,0.00,weatherlink.com 1.10,2013-01-23 23:53:00,
2013-01-23 19:05:00,12.2,1.0,30.22,West,279,3.0,-999.0,62,-99.99,,,0.00,weatherlink.com 1.10,2013-01-24 00:05:00,
2013-01-23 19:20:00,12.1,1.0,30.22,WNW,282,2.0,-999.0,62,-99.99,,,0.00,weatherlink.com 1.10,2013-01-24 00:20:00,
2013-01-23 19:35:00,11.8,2.0,30.22,West,281,1.0,-999.0,64,-99.99,,,0.00,weatherlink.com 1.10,2013-01-24 00:35:00,
2013-01-23 19:50:00,11.5,1.0,30.21,West,281,1.0,-999.0,64,-99.99,,,0.00,weatherlink.com 1.10,2013-01-24 00:50:00,
2013-01-23 20:06:00,11.2,2.0,30.22,West,281,2.0,-999.0,65,-99.99,,,0.00,weatherlink.com 1.10,2013-01-24 01:06:00,
2013-01-23 20:21:00,10.7,1.0,30.22,West,281,0.0,-999.0,65,-99.99,,,0.00,weatherlink.com 1.10,2013-01-24 01:21:00,
2013-01-23 20:36:00,10.5,1.0,30.21,West,281,0.0,-999.0,66,-99.99,,,0.00,weatherlink.com 1.10,2013-01-24 01:36:00,
2013-01-23 20:52:00,10.1,1.0,30.21,West,281,0.0,-999.0,67,-99.99,,,0.00,weatherlink.com 1.10,2013-01-24 01:52:00,
2013-01-23 21:07:00,10.1,1.0,30.21,West,281,0.0,-999.0,67,-99.99,,,0.00,weatherlink.com 1.10,2013-01-24 02:07:00,
2013-01-23 21:22:00,9.7,1.0,30.22,West,281,0.0,-999.0,68,-99.99,,,0.00,weatherlink.com 1.10,2013-01-24 02:22:00,
2013-01-23 21:37:00,9.1,1.0,30.22,West,281,0.0,-999.0,69,-99.99,,,0.00,weatherlink.com 1.10,2013-01-24 02:37:00,
2013-01-23 21:53:00,8.7,1.0,30.22,West,281,0.0,-999.0,71,-99.99,,,0.00,weatherlink.com 1.10,2013-01-24 02:53:00,
2013-01-23 22:08:00,8.9,1.0,30.22,West,281,0.0,-999.0,71,-99.99,,,0.00,weatherlink.com 1.10,2013-01-24 03:08:00,
2013-01-23 22:25:00,9.0,1.0,30.22,West,281,0.0,-999.0,71,-99.99,,,0.00,weatherlink.com 1.10,2013-01-24 03:25:00,
2013-01-23 22:40:00,9.1,2.0,30.22,West,281,0.0,-999.0,71,-99.99,,,0.00,weatherlink.com 1.10,2013-01-24 03:40:00,
2013-01-23 22:55:00,9.2,2.0,30.22,West,281,0.0,-999.0,71,-99.99,,,0.00,weatherlink.com 1.10,2013-01-24 03:55:00,
2013-01-23 23:10:00,9.2,2.0,30.22,West,281,0.0,-999.0,72,-99.99,,,0.00,weatherlink.com 1.10,2013-01-24 04:10:00,
2013-01-23 23:25:00,9.5,3.0,30.21,West,281,0.0,-999.0,73,-99.99,,,0.00,weatherlink.com 1.10,2013-01-24 04:25:00,
2013-01-23 23:40:00,9.6,3.0,30.21,West,281,0.0,-999.0,73,-99.99,,,0.00,weatherlink.com 1.10,2013-01-24 04:40:00,
2013-01-23 23:55:00,9.6,3.0,30.20,West,281,0.0,-999.0,73,-99.99,,,0.00,weatherlink.com 1.10,2013-01-24 04:55:00,